QPF
0.01 0.01 0.03 0.03 0.02 0.02 0.02 0.04 0.03 0.01 0.02 0.02 0.02 0.03 0.04 0.02 0.02 0.03 0.02 0.03 0.03 0.04 0.02 0.01 0.01 0.02 0.04 0.03 0.01 0.00 0.00 0.01 0.01 0.00 0.01 0.00 0.00 0.00 0.00 0.00 0.00 0.00 0.00 0.00
0.02 0.02 0.01 0.00 0.01 0.02 0.02 0.03 0.04 0.02 0.01 0.01 0.02 0.03 0.03 0.02 0.02 0.03 0.02 0.02 0.02 0.02 0.03 0.02 0.01 0.01 0.03 0.02 0.01 0.01 0.01 0.02 0.02 0.01 0.00 0.00 0.00 0.00 0.00 0.00 0.00 0.00 0.00 0.00
0.02 0.01 0.00 0.01 0.01 0.02 0.03 0.05 0.05 0.03 0.01 0.01 0.02 0.04 0.03 0.03 0.02 0.01 0.01 0.02 0.02 0.02 0.02 0.02 0.02 0.03 0.02 0.01 0.01 0.02 0.02 0.02 0.01 0.01 0.00 0.00 0.00 0.00 0.00 0.00 0.00 0.00 0.00 0.00
0.01 0.00 0.00 0.01 0.01 0.02 0.05 0.02 0.02 0.02 0.05 0.05 0.03 0.08 0.06 0.03 0.02 0.02 0.02 0.01 0.01 0.01 0.02 0.02 0.03 0.04 0.03 0.02 0.01 0.02 0.02 0.02 0.02 0.01 0.01 0.00 0.00 0.00 0.00 0.00 0.00 0.00 0.00 0.00
0.01 0.01 0.01 0.02 0.02 0.01 0.02 0.02 0.01 0.02 0.05 0.07 0.05 0.07 0.08 0.04 0.04 0.03 0.02 0.01 0.01 0.01 0.01 0.01 0.02 0.03 0.03 0.04 0.05 0.05 0.03 0.02 0.01 0.01 0.01 0.01 0.01 0.01 0.01 0.00 0.00 0.00 0.00 0.00
0.01 0.01 0.01 0.01 0.01 0.01 0.01 0.02 0.03 0.03 0.05 0.08 0.05 0.05 0.08 0.06 0.03 0.02 0.01 0.02 0.01 0.01 0.01 0.01 0.02 0.03 0.03 0.03 0.04 0.07 0.06 0.03 0.02 0.01 0.00 0.00 0.00 0.00 0.01 0.00 0.01 0.00 0.00 0.00
0.01 0.01 0.01 0.00 0.01 0.01 0.02 0.06 0.08 0.09 0.09 0.07 0.02 0.02 0.04 0.03 0.01 0.01 0.02 0.02 0.01 0.01 0.01 0.01 0.01 0.02 0.03 0.02 0.04 0.04 0.03 0.04 0.04 0.04 0.02 0.00 0.00 0.00 0.00 0.00 0.00 0.00 0.00 0.00
0.02 0.02 0.01 0.00 0.01 0.01 0.02 0.05 0.08 0.09 0.08 0.06 0.02 0.03 0.02 0.01 0.01 0.01 0.01 0.02 0.01 0.01 0.00 0.00 0.00 0.01 0.01 0.01 0.02 0.02 0.01 0.02 0.04 0.05 0.03 0.01 0.01 0.01 0.01 0.00 0.00 0.00 0.00 0.00
0.02 0.02 0.01 0.00 0.00 0.01 0.02 0.03 0.02 0.04 0.04 0.06 0.04 0.03 0.02 0.01 0.01 0.01 0.01 0.02 0.01 0.00 0.00 0.00 0.00 0.00 0.01 0.01 0.01 0.01 0.01 0.02 0.03 0.04 0.04 0.02 0.01 0.01 0.01 0.00 0.01 0.00 0.00 0.00
0.02 0.02 0.01 0.00 0.00 0.01 0.02 0.01 0.02 0.05 0.07 0.07 0.05 0.05 0.04 0.02 0.02 0.01 0.01 0.01 0.01 0.00 0.00 0.00 0.00 0.01 0.01 0.01 0.01 0.01 0.00 0.01 0.02 0.02 0.02 0.02 0.01 0.01 0.01 0.01 0.01 0.01 0.01 0.01
0.01 0.02 0.02 0.01 0.01 0.01 0.01 0.01 0.02 0.05 0.05 0.07 0.07 0.06 0.02 0.01 0.00 0.00 0.01 0.01 0.01 0.01 0.01 0.00 0.00 0.01 0.02 0.01 0.01 0.01 0.01 0.01 0.01 0.01 0.02 0.02 0.01 0.01 0.01 0.01 0.01 0.01 0.01 0.01
0.02 0.02 0.03 0.01 0.00 0.00 0.00 0.00 0.01 0.04 0.05 0.04 0.06 0.05 0.01 0.00 0.00 0.00 0.01 0.01 0.01 0.01 0.01 0.01 0.01 0.01 0.01 0.01 0.01 0.01 0.01 0.01 0.01 0.01 0.01 0.01 0.01 0.01 0.01 0.01 0.02 0.01 0.01 0.01
0.02 0.02 0.04 0.04 0.02 0.00 0.00 0.00 0.00 0.01 0.02 0.04 0.06 0.06 0.01 0.00 0.00 0.00 0.00 0.01 0.00 0.01 0.01 0.01 0.00 0.00 0.01 0.01 0.01 0.01 0.01 0.01 0.01 0.01 0.02 0.02 0.01 0.01 0.01 0.01 0.02 0.01 0.01 0.01
0.02 0.02 0.03 0.04 0.03 0.01 0.00 0.00 0.00 0.01 0.03 0.03 0.03 0.03 0.02 0.00 0.00 0.00 0.01 0.01 0.01 0.01 0.01 0.01 0.00 0.01 0.01 0.01 0.01 0.01 0.01 0.01 0.01 0.01 0.02 0.02 0.02 0.01 0.01 0.01 0.02 0.01 0.02 0.02
0.02 0.02 0.02 0.01 0.01 0.01 0.01 0.00 0.00 0.00 0.01 0.01 0.01 0.01 0.01 0.00 0.00 0.00 0.00 0.00 0.01 0.01 0.01 0.01 0.02 0.02 0.01 0.02 0.01 0.02 0.02 0.01 0.01 0.01 0.02 0.03 0.03 0.02 0.01 0.01 0.01 0.02 0.02 0.01
0.02 0.02 0.02 0.01 0.01 0.01 0.01 0.01 0.00 0.00 0.00 0.00 0.00 0.01 0.01 0.00 0.00 0.00 0.00 0.00 0.01 0.01 0.01 0.01 0.01 0.03 0.03 0.02 0.01 0.01 0.02 0.02 0.01 0.01 0.01 0.02 0.03 0.02 0.01 0.01 0.01 0.02 0.01 0.01
0.01 0.02 0.02 0.01 0.01 0.02 0.02 0.01 0.00 0.00 0.00 0.00 0.00 0.00 0.00 0.01 0.00 0.00 0.00 0.01 0.01 0.01 0.01 0.01 0.01 0.02 0.04 0.03 0.01 0.01 0.01 0.02 0.02 0.01 0.01 0.02 0.02 0.02 0.02 0.01 0.01 0.01 0.01 0.01
0.01 0.01 0.02 0.02 0.02 0.04 0.01 0.00 0.00 0.00 0.00 0.00 0.00 0.00 0.00 0.00 0.00 0.00 0.00 0.01 0.01 0.01 0.01 0.01 0.01 0.01 0.02 0.02 0.02 0.01 0.01 0.01 0.01 0.01 0.01 0.01 0.01 0.02 0.02 0.01 0.01 0.01 0.01 0.02
0.01 0.01 0.03 0.03 0.04 0.03 0.01 0.01 0.00 0.00 0.00 0.00 0.00 0.00 0.00 0.00 0.00 0.00 0.00 0.00 0.00 0.00 0.00 0.00 0.01 0.01 0.01 0.01 0.02 0.01 0.02 0.02 0.01 0.01 0.01 0.01 0.01 0.01 0.02 0.02 0.01 0.01 0.01 0.01
0.01 0.01 0.02 0.03 0.04 0.03 0.02 0.00 0.01 0.01 0.01 0.00 0.00 0.00 0.00 0.00 0.00 0.01 0.00 0.00 0.00 0.00 0.00 0.00 0.01 0.00 0.00 0.00 0.01 0.01 0.02 0.02 0.01 0.01 0.02 0.02 0.02 0.02 0.02 0.02 0.01 0.01 0.01 0.01
0.01 0.01 0.01 0.02 0.03 0.02 0.01 0.01 0.01 0.02 0.01 0.00 0.00 0.00 0.00 0.00 0.00 0.00 0.00 0.00 0.00 0.00 0.00 0.00 0.00 0.00 0.00 0.00 0.00 0.01 0.01 0.02 0.02 0.02 0.01 0.02 0.03 0.03 0.03 0.03 0.01 0.00 0.00 0.01
0.02 0.01 0.01 0.02 0.03 0.02 0.02 0.01 0.01 0.01 0.01 0.00 0.00 0.00 0.00 0.00 0.00 0.00 0.00 0.00 0.00 0.00 0.00 0.00 0.01 0.01 0.01 0.01 0.00 0.00 0.00 0.01 0.02 0.02 0.02 0.02 0.02 0.03 0.03 0.03 0.03 0.01 0.01 0.01
0.02 0.02 0.01 0.01 0.02 0.02 0.01 0.01 0.02 0.01 0.01 0.00 0.00 0.00 0.00 0.00 0.00 0.00 0.00 0.01 0.00 0.00 0.00 0.00 0.01 0.01 0.01 0.01 0.01 0.01 0.01 0.01 0.02 0.03 0.02 0.02 0.02 0.03 0.03 0.04 0.03 0.03 0.02 0.01
0.01 0.01 0.01 0.01 0.00 0.01 0.00 0.01 0.01 0.01 0.00 0.00 0.00 0.00 0.00 0.00 0.00 0.00 0.01 0.01 0.01 0.00 0.00 0.00 0.01 0.01 0.01 0.01 0.01 0.01 0.01 0.01 0.02 0.02 0.03 0.03 0.03 0.03 0.03 0.04 0.04 0.03 0.02 0.01
0.01 0.01 0.01 0.01 0.01 0.01 0.00 0.00 0.00 0.00 0.00 0.00 0.00 0.00 0.00 0.00 0.00 0.00 0.01 0.02 0.02 0.01 0.00 0.00 0.01 0.01 0.01 0.02 0.02 0.01 0.01 0.01 0.01 0.01 0.02 0.02 0.03 0.03 0.03 0.04 0.03 0.02 0.02 0.02
0.00 0.01 0.02 0.01 0.01 0.01 0.00 0.00 0.00 0.00 0.00 0.00 0.00 0.00 0.00 0.00 0.01 0.01 0.01 0.03 0.04 0.02 0.01 0.01 0.01 0.01 0.01 0.02 0.02 0.02 0.02 0.02 0.01 0.01 0.02 0.02 0.03 0.03 0.02 0.02 0.02 0.02 0.02 0.01
MSLP
1009.77 1010.60 1011.40 1012.14 1012.77 1013.30 1013.72 1014.05 1014.29 1014.44 1014.51 1014.48 1014.36 1014.16 1013.89 1013.58 1013.28 1013.02 1012.83 1012.73 1012.71 1012.77 1012.89 1013.05 1013.23 1013.42 1013.62 1013.84 1014.11 1014.42 1014.78 1015.19 1015.62 1016.03 1016.38 1016.65 1016.80 1016.84 1016.76 1016.61 1016.42 1016.22 1016.05 1015.94
1010.27 1010.96 1011.61 1012.18 1012.68 1013.11 1013.48 1013.82 1014.11 1014.35 1014.51 1014.58 1014.52 1014.35 1014.08 1013.75 1013.41 1013.10 1012.88 1012.76 1012.75 1012.85 1013.02 1013.23 1013.45 1013.66 1013.85 1014.06 1014.28 1014.55 1014.88 1015.27 1015.69 1016.13 1016.53 1016.84 1017.06 1017.14 1017.10 1016.96 1016.76 1016.55 1016.36 1016.22
1010.65 1011.20 1011.68 1012.10 1012.45 1012.79 1013.12 1013.46 1013.80 1014.12 1014.37 1014.52 1014.53 1014.40 1014.13 1013.79 1013.41 1013.08 1012.83 1012.72 1012.74 1012.88 1013.11 1013.38 1013.66 1013.90 1014.11 1014.29 1014.47 1014.69 1014.96 1015.31 1015.72 1016.15 1016.57 1016.94 1017.20 1017.34 1017.36 1017.26 1017.09 1016.89 1016.70 1016.54
1010.94 1011.35 1011.69 1011.96 1012.21 1012.46 1012.76 1013.11 1013.50 1013.88 1014.20 1014.41 1014.47 1014.36 1014.09 1013.72 1013.31 1012.94 1012.68 1012.57 1012.63 1012.83 1013.13 1013.49 1013.83 1014.13 1014.36 1014.54 1014.70 1014.86 1015.08 1015.37 1015.72 1016.13 1016.55 1016.93 1017.24 1017.44 1017.51 1017.47 1017.36 1017.19 1017.03 1016.89
1011.16 1011.47 1011.70 1011.87 1012.04 1012.25 1012.53 1012.89 1013.31 1013.74 1014.11 1014.35 1014.42 1014.30 1014.00 1013.58 1013.12 1012.71 1012.42 1012.32 1012.40 1012.67 1013.06 1013.50 1013.94 1014.32 1014.61 1014.81 1014.96 1015.08 1015.24 1015.46 1015.75 1016.10 1016.48 1016.86 1017.18 1017.42 1017.55 1017.57 1017.52 1017.42 1017.29 1017.19
1011.37 1011.61 1011.76 1011.88 1012.01 1012.20 1012.48 1012.86 1013.31 1013.76 1014.15 1014.39 1014.44 1014.27 1013.91 1013.42 1012.89 1012.42 1012.09 1011.98 1012.09 1012.40 1012.88 1013.43 1013.97 1014.45 1014.82 1015.07 1015.23 1015.34 1015.45 1015.60 1015.81 1016.09 1016.41 1016.74 1017.05 1017.30 1017.47 1017.55 1017.56 1017.52 1017.46 1017.40
1011.60 1011.78 1011.91 1012.01 1012.13 1012.33 1012.63 1013.04 1013.50 1013.95 1014.32 1014.53 1014.53 1014.29 1013.85 1013.27 1012.65 1012.11 1011.74 1011.59 1011.71 1012.07 1012.61 1013.25 1013.90 1014.49 1014.95 1015.28 1015.48 1015.60 1015.68 1015.77 1015.91 1016.10 1016.34 1016.62 1016.89 1017.12 1017.30 1017.42 1017.48 1017.50 1017.50 1017.49
1011.82 1011.99 1012.11 1012.22 1012.37 1012.60 1012.93 1013.35 1013.82 1014.26 1014.59 1014.75 1014.67 1014.36 1013.83 1013.17 1012.47 1011.85 1011.42 1011.24 1011.34 1011.71 1012.30 1013.00 1013.74 1014.42 1014.98 1015.39 1015.66 1015.81 1015.88 1015.94 1016.02 1016.14 1016.31 1016.51 1016.72 1016.92 1017.09 1017.22 1017.31 1017.37 1017.43 1017.47
1012.03 1012.19 1012.33 1012.47 1012.67 1012.94 1013.30 1013.73 1014.18 1014.59 1014.88 1014.98 1014.84 1014.46 1013.87 1013.14 1012.38 1011.71 1011.22 1011.00 1011.06 1011.41 1011.99 1012.72 1013.50 1014.24 1014.88 1015.37 1015.70 1015.90 1016.01 1016.07 1016.12 1016.19 1016.30 1016.44 1016.59 1016.75 1016.89 1017.01 1017.11 1017.20 1017.28 1017.37
1012.16 1012.33 1012.51 1012.70 1012.95 1013.26 1013.65 1014.08 1014.52 1014.89 1015.13 1015.18 1015.00 1014.59 1013.97 1013.22 1012.44 1011.74 1011.22 1010.94 1010.95 1011.25 1011.78 1012.47 1013.23 1013.98 1014.65 1015.19 1015.59 1015.85 1016.01 1016.11 1016.18 1016.24 1016.32 1016.42 1016.53 1016.64 1016.75 1016.85 1016.94 1017.03 1017.13 1017.24
1012.19 1012.39 1012.61 1012.87 1013.17 1013.52 1013.93 1014.35 1014.76 1015.10 1015.30 1015.32 1015.13 1014.73 1014.14 1013.43 1012.68 1012.00 1011.47 1011.16 1011.10 1011.30 1011.72 1012.31 1012.99 1013.68 1014.32 1014.88 1015.31 1015.64 1015.87 1016.04 1016.16 1016.26 1016.36 1016.45 1016.55 1016.63 1016.71 1016.78 1016.84 1016.92 1017.01 1017.13
1012.10 1012.35 1012.64 1012.96 1013.32 1013.71 1014.12 1014.53 1014.90 1015.20 1015.37 1015.39 1015.22 1014.88 1014.37 1013.76 1013.11 1012.50 1011.99 1011.66 1011.53 1011.61 1011.88 1012.31 1012.83 1013.40 1013.96 1014.48 1014.92 1015.30 1015.60 1015.86 1016.06 1016.24 1016.39 1016.52 1016.63 1016.71 1016.76 1016.80 1016.84 1016.88 1016.95 1017.06
1011.94 1012.26 1012.62 1013.02 1013.43 1013.84 1014.25 1014.62 1014.95 1015.20 1015.36 1015.38 1015.28 1015.03 1014.67 1014.21 1013.70 1013.21 1012.77 1012.44 1012.24 1012.19 1012.28 1012.51 1012.83 1013.21 1013.64 1014.06 1014.48 1014.88 1015.25 1015.59 1015.90 1016.17 1016.41 1016.60 1016.73 1016.83 1016.87 1016.89 1016.90 1016.92 1016.96 1017.05
1011.76 1012.16 1012.60 1013.07 1013.53 1013.95 1014.33 1014.67 1014.94 1015.14 1015.27 1015.33 1015.30 1015.18 1014.99 1014.72 1014.41 1014.07 1013.74 1013.43 1013.18 1013.01 1012.92 1012.92 1013.01 1013.17 1013.42 1013.72 1014.08 1014.47 1014.88 1015.30 1015.70 1016.07 1016.39 1016.65 1016.83 1016.95 1017.00 1017.01 1017.00 1016.99 1017.01 1017.07
1011.64 1012.12 1012.64 1013.16 1013.65 1014.07 1014.41 1014.68 1014.88 1015.03 1015.14 1015.22 1015.27 1015.30 1015.29 1015.24 1015.14 1014.99 1014.78 1014.54 1014.27 1013.99 1013.74 1013.52 1013.38 1013.32 1013.37 1013.52 1013.79 1014.14 1014.56 1015.03 1015.50 1015.95 1016.35 1016.67 1016.90 1017.04 1017.11 1017.11 1017.09 1017.07 1017.07 1017.12
1011.62 1012.17 1012.75 1013.31 1013.80 1014.19 1014.47 1014.66 1014.79 1014.87 1014.95 1015.05 1015.18 1015.34 1015.52 1015.68 1015.80 1015.85 1015.81 1015.65 1015.40 1015.06 1014.67 1014.28 1013.93 1013.66 1013.52 1013.53 1013.68 1013.97 1014.38 1014.86 1015.37 1015.86 1016.30 1016.66 1016.92 1017.08 1017.16 1017.17 1017.15 1017.13 1017.14 1017.19
1011.74 1012.32 1012.92 1013.48 1013.94 1014.28 1014.49 1014.59 1014.62 1014.63 1014.68 1014.79 1014.98 1015.27 1015.61 1015.98 1016.32 1016.57 1016.69 1016.65 1016.44 1016.09 1015.63 1015.12 1014.61 1014.19 1013.89 1013.76 1013.81 1014.02 1014.38 1014.85 1015.35 1015.85 1016.30 1016.67 1016.94 1017.10 1017.18 1017.20 1017.20 1017.19 1017.22 1017.29
1011.96 1012.53 1013.11 1013.63 1014.03 1014.29 1014.41 1014.42 1014.36 1014.31 1014.31 1014.43 1014.68 1015.06 1015.55 1016.10 1016.63 1017.07 1017.35 1017.45 1017.33 1017.01 1016.54 1015.97 1015.39 1014.87 1014.47 1014.23 1014.19 1014.33 1014.64 1015.05 1015.52 1015.99 1016.41 1016.76 1017.00 1017.16 1017.24 1017.27 1017.28 1017.31 1017.37 1017.47
1012.23 1012.74 1013.24 1013.68 1014.00 1014.17 1014.20 1014.12 1013.99 1013.87 1013.85 1013.97 1014.27 1014.74 1015.35 1016.04 1016.73 1017.33 1017.78 1018.01 1018.01 1017.78 1017.35 1016.80 1016.21 1015.66 1015.21 1014.93 1014.83 1014.91 1015.15 1015.50 1015.91 1016.32 1016.69 1016.99 1017.20 1017.34 1017.41 1017.45 1017.49 1017.56 1017.66 1017.82
1012.46 1012.86 1013.26 1013.59 1013.81 1013.89 1013.84 1013.69 1013.51 1013.37 1013.34 1013.48 1013.82 1014.35 1015.05 1015.85 1016.67 1017.41 1018.00 1018.37 1018.50 1018.38 1018.05 1017.58 1017.04 1016.52 1016.09 1015.80 1015.68 1015.72 1015.91 1016.21 1016.55 1016.89 1017.20 1017.44 1017.61 1017.72 1017.78 1017.84 1017.91 1018.02 1018.18 1018.38
1012.59 1012.87 1013.14 1013.35 1013.47 1013.47 1013.36 1013.18 1012.99 1012.85 1012.85 1013.02 1013.40 1013.99 1014.75 1015.63 1016.54 1017.38 1018.09 1018.58 1018.83 1018.85 1018.65 1018.29 1017.86 1017.43 1017.06 1016.81 1016.70 1016.73 1016.89 1017.14 1017.42 1017.70 1017.94 1018.13 1018.27 1018.35 1018.42 1018.49 1018.59 1018.74 1018.94 1019.19
1012.60 1012.74 1012.88 1012.98 1013.02 1012.96 1012.84 1012.67 1012.50 1012.41 1012.46 1012.68 1013.11 1013.75 1014.56 1015.49 1016.45 1017.35 1018.14 1018.73 1019.10 1019.24 1019.18 1018.97 1018.67 1018.35 1018.08 1017.90 1017.83 1017.88 1018.03 1018.24 1018.48 1018.72 1018.92 1019.07 1019.17 1019.25 1019.32 1019.41 1019.54 1019.72 1019.95 1020.22
1012.48 1012.50 1012.53 1012.55 1012.53 1012.46 1012.36 1012.24 1012.15 1012.14 1012.26 1012.56 1013.04 1013.72 1014.55 1015.50 1016.48 1017.41 1018.24 1018.90 1019.37 1019.63 1019.70 1019.63 1019.47 1019.28 1019.12 1019.03 1019.02 1019.10 1019.26 1019.46 1019.68 1019.88 1020.05 1020.18 1020.28 1020.36 1020.44 1020.55 1020.70 1020.90 1021.15 1021.42
1012.27 1012.19 1012.15 1012.12 1012.09 1012.05 1012.01 1011.98 1011.99 1012.10 1012.32 1012.69 1013.24 1013.94 1014.79 1015.72 1016.69 1017.63 1018.47 1019.17 1019.70 1020.05 1020.24 1020.30 1020.27 1020.21 1020.16 1020.15 1020.21 1020.33 1020.50 1020.70 1020.91 1021.10 1021.27 1021.40 1021.50 1021.60 1021.70 1021.82 1021.98 1022.19 1022.42 1022.68
1012.00 1011.87 1011.78 1011.75 1011.74 1011.77 1011.83 1011.92 1012.07 1012.30 1012.64 1013.10 1013.70 1014.43 1015.26 1016.17 1017.11 1018.01 1018.84 1019.56 1020.13 1020.55 1020.83 1020.99 1021.08 1021.13 1021.17 1021.24 1021.35 1021.50 1021.69 1021.90 1022.10 1022.30 1022.47 1022.61 1022.73 1022.84 1022.96 1023.10 1023.26 1023.45 1023.66 1023.87
1011.71 1011.55 1011.47 1011.46 1011.52 1011.64 1011.82 1012.06 1012.35 1012.72 1013.17 1013.72 1014.37 1015.11 1015.93 1016.80 1017.69 1018.55 1019.35 1020.06 1020.65 1021.11 1021.46 1021.71 1021.89 1022.02 1022.13 1022.26 1022.41 1022.58 1022.77 1022.98 1023.19 1023.39 1023.56 1023.72 1023.86 1023.99 1024.12 1024.26 1024.42 1024.58 1024.75 1024.90
Thickness
5738 5726 5719 5725 5728 5727 5725 5720 5715 5722 5734 5729 5722 5721 5726 5734 5733 5731 5732 5732 5733 5735 5739 5742 5743 5743 5743 5743 5743 5742 5741 5741 5740 5738 5737 5736 5736 5738 5739 5739 5738 5737 5737 5736
5724 5718 5730 5736 5734 5727 5723 5715 5714 5722 5732 5728 5720 5719 5727 5732 5732 5733 5733 5732 5733 5735 5737 5737 5739 5740 5740 5740 5741 5741 5741 5740 5738 5737 5737 5737 5736 5736 5736 5735 5735 5735 5734 5733
5718 5726 5736 5731 5726 5720 5718 5714 5713 5714 5723 5726 5718 5711 5719 5730 5734 5736 5737 5736 5737 5736 5735 5735 5736 5737 5738 5738 5739 5740 5740 5739 5738 5737 5737 5735 5733 5733 5731 5730 5730 5731 5731 5731
5724 5732 5731 5724 5721 5720 5710 5723 5722 5719 5710 5705 5712 5693 5713 5726 5726 5730 5732 5734 5735 5737 5736 5735 5736 5735 5736 5738 5740 5740 5739 5738 5737 5736 5734 5731 5727 5725 5727 5728 5728 5728 5728 5728
5719 5726 5723 5717 5721 5724 5719 5729 5725 5720 5712 5707 5712 5702 5711 5727 5720 5726 5731 5734 5735 5737 5737 5735 5736 5736 5737 5738 5738 5738 5737 5736 5735 5734 5732 5730 5727 5727 5727 5727 5725 5725 5725 5724
5725 5733 5729 5724 5729 5729 5727 5723 5721 5720 5710 5692 5711 5707 5704 5722 5726 5729 5733 5735 5736 5737 5736 5736 5737 5737 5736 5736 5735 5735 5733 5732 5732 5731 5730 5728 5726 5725 5723 5722 5721 5721 5721 5721
5713 5722 5730 5731 5720 5723 5719 5702 5687 5685 5684 5694 5724 5715 5713 5733 5741 5739 5735 5735 5737 5737 5736 5734 5734 5733 5732 5732 5731 5731 5729 5728 5729 5729 5727 5726 5726 5725 5722 5720 5719 5718 5716 5716
5700 5700 5720 5725 5720 5712 5713 5706 5686 5677 5683 5698 5720 5711 5723 5743 5746 5745 5741 5738 5737 5735 5735 5734 5733 5732 5731 5730 5729 5728 5727 5725 5726 5726 5726 5726 5725 5723 5722 5721 5719 5717 5715 5715
5703 5703 5725 5729 5730 5723 5710 5709 5718 5703 5701 5695 5705 5714 5724 5738 5738 5738 5737 5734 5732 5734 5735 5734 5733 5732 5730 5729 5727 5727 5725 5724 5724 5724 5725 5724 5723 5721 5720 5719 5718 5716 5715 5714
5717 5702 5716 5725 5726 5726 5724 5720 5710 5696 5683 5681 5694 5700 5705 5719 5725 5730 5730 5729 5730 5732 5734 5733 5732 5731 5730 5728 5727 5727 5725 5723 5723 5723 5722 5722 5721 5719 5718 5717 5715 5714 5713 5712
5720 5704 5705 5713 5710 5710 5715 5713 5710 5703 5698 5684 5679 5691 5727 5726 5728 5727 5729 5730 5731 5731 5732 5731 5731 5730 5729 5727 5725 5723 5723 5722 5721 5720 5720 5719 5718 5717 5715 5713 5713 5712 5711 5710
5717 5707 5697 5707 5724 5729 5722 5717 5711 5693 5692 5699 5689 5692 5735 5734 5734 5732 5730 5730 5732 5732 5731 5730 5728 5727 5725 5724 5723 5721 5721 5720 5719 5719 5717 5716 5715 5714 5712 5710 5710 5710 5708 5707
5714 5704 5688 5689 5702 5715 5715 5719 5718 5713 5703 5696 5685 5689 5728 5733 5733 5732 5730 5729 5729 5729 5729 5727 5724 5723 5721 5721 5721 5720 5719 5718 5717 5717 5714 5712 5711 5710 5709 5708 5707 5706 5705 5704
5715 5704 5695 5682 5692 5706 5707 5712 5716 5709 5694 5693 5696 5697 5711 5721 5724 5727 5727 5727 5726 5726 5725 5724 5721 5720 5719 5719 5719 5718 5717 5716 5715 5713 5711 5709 5708 5707 5706 5705 5704 5703 5702 5700
5711 5698 5704 5706 5712 5714 5710 5711 5712 5709 5707 5699 5702 5705 5711 5720 5723 5725 5726 5725 5724 5722 5722 5721 5718 5718 5717 5717 5716 5716 5715 5714 5712 5709 5708 5706 5706 5705 5703 5701 5700 5699 5698 5697
5708 5698 5701 5700 5709 5711 5707 5711 5713 5711 5712 5710 5709 5708 5723 5728 5728 5725 5723 5721 5719 5718 5718 5718 5718 5717 5716 5715 5714 5713 5711 5711 5710 5707 5705 5704 5703 5700 5698 5697 5696 5694 5693 5692
5703 5697 5690 5689 5703 5702 5694 5709 5712 5713 5717 5714 5706 5713 5723 5719 5720 5720 5720 5719 5717 5716 5716 5716 5716 5715 5715 5715 5714 5711 5710 5709 5707 5704 5703 5701 5699 5696 5695 5694 5691 5689 5688 5687
5699 5695 5690 5687 5688 5673 5699 5725 5722 5716 5718 5722 5721 5722 5722 5719 5720 5721 5722 5718 5716 5715 5715 5714 5715 5714 5714 5714 5713 5711 5709 5706 5704 5702 5700 5698 5696 5693 5691 5689 5687 5685 5684 5682
5706 5693 5683 5680 5675 5683 5704 5718 5718 5709 5708 5723 5720 5720 5721 5721 5716 5713 5718 5718 5716 5715 5715 5714 5714 5713 5712 5711 5711 5708 5705 5703 5700 5698 5697 5695 5693 5690 5687 5685 5683 5682 5680 5677
5702 5697 5682 5677 5668 5666 5695 5717 5725 5714 5698 5720 5721 5716 5716 5714 5697 5700 5713 5715 5714 5713 5713 5712 5711 5710 5708 5708 5708 5704 5700 5698 5696 5695 5694 5693 5691 5688 5684 5682 5680 5679 5676 5673
5683 5682 5677 5674 5670 5679 5703 5715 5714 5689 5693 5717 5720 5717 5714 5709 5705 5709 5712 5711 5710 5710 5709 5709 5707 5705 5704 5705 5703 5698 5696 5694 5694 5694 5692 5690 5688 5685 5682 5679 5677 5675 5672 5669
5680 5677 5677 5676 5668 5673 5704 5706 5699 5700 5714 5716 5715 5714 5711 5708 5709 5708 5707 5705 5705 5703 5703 5703 5700 5699 5700 5701 5697 5693 5692 5693 5692 5689 5687 5685 5684 5682 5679 5676 5673 5670 5667 5663
5685 5684 5681 5680 5678 5695 5705 5705 5709 5713 5710 5711 5709 5709 5708 5704 5701 5701 5700 5699 5698 5698 5697 5697 5695 5693 5693 5694 5693 5689 5689 5689 5687 5684 5681 5680 5678 5676 5674 5670 5667 5664 5661 5658
5687 5693 5684 5681 5686 5695 5700 5704 5707 5709 5707 5707 5706 5705 5702 5698 5697 5695 5694 5693 5692 5692 5691 5690 5689 5686 5686 5687 5688 5687 5687 5685 5682 5678 5676 5674 5672 5670 5667 5664 5661 5657 5654 5651
5677 5682 5678 5675 5683 5689 5693 5697 5700 5701 5703 5702 5701 5700 5698 5695 5692 5690 5688 5687 5686 5686 5685 5684 5682 5680 5680 5681 5681 5682 5682 5680 5676 5673 5670 5668 5666 5664 5660 5657 5654 5652 5649 5647
5678 5676 5671 5670 5683 5683 5685 5694 5697 5695 5694 5695 5693 5691 5692 5691 5688 5686 5684 5683 5681 5679 5679 5677 5676 5674 5674 5674 5674 5675 5675 5674 5670 5666 5664 5662 5659 5657 5654 5650 5645 5643 5642 5641